Lid_Strength_Index
2 4 6 7 10 10 12 11 9 8 8 6 6 7 8 7 9 12 2 1 0 0 -0 -1 -1 -1 -1 -1 -1 -1 -0 -0 -0 0 0 -0 -0 -0 0 0 1 1 0 0 0 -0 -1 -0 -0
4 4 6 8 11 14 13 8 10 9 6 6 6 7 7 8 5 4 4 1 0 0 -0 -0 -1 -1 -1 -1 -1 -1 -0 -0 0 0 0 0 0 1 1 1 1 1 0 -0 0 0 0 1 1
2 4 8 8 11 14 13 10 10 8 6 6 7 6 6 7 4 4 1 1 0 0 -0 -0 -1 -1 -1 -1 -1 -1 -0 0 0 0 1 1 1 1 1 1 1 1 0 1 0 0 1 1 1
5 5 7 10 11 10 9 7 10 10 7 6 7 7 5 3 4 2 1 1 1 0 -0 -1 -1 -1 -1 -1 -1 -0 1 1 1 1 1 1 1 1 1 1 1 1 1 1 1 1 1 1 0
5 7 10 11 10 8 8 8 9 10 8 6 7 7 7 4 2 1 1 1 1 0 0 -0 -1 -2 -1 -1 -0 0 1 1 1 2 1 2 1 1 1 1 1 2 1 1 1 1 1 1 1
8 8 11 12 10 7 6 6 8 10 9 7 8 8 7 2 2 2 1 1 0 0 -0 -0 -0 -1 -2 -1 0 1 2 2 2 2 2 2 2 2 1 1 1 1 2 1 1 1 1 2 1
9 10 12 11 10 9 8 7 9 9 10 8 5 8 6 4 2 1 2 1 0 0 0 -0 -0 -0 -0 0 1 1 2 2 2 3 3 3 3 3 3 2 2 1 2 1 1 1 1 1 1
9 10 12 11 11 10 7 8 8 9 10 5 5 8 8 4 2 1 2 1 1 0 0 0 -0 1 2 2 2 2 2 2 2 3 4 4 4 3 3 3 3 2 2 1 1 1 1 1 1
7 13 14 12 11 9 7 9 7 9 11 8 5 5 4 3 2 2 2 2 2 1 1 0 0 0 2 3 4 3 2 3 4 4 4 5 5 5 5 4 4 3 3 2 1 1 1 0 1
10 13 13 10 9 10 9 9 9 10 10 10 7 4 3 3 3 4 4 4 3 2 1 0 0 1 2 3 5 5 5 6 6 5 5 5 5 6 5 6 4 4 2 1 1 1 1 1 3
9 13 10 10 9 9 9 10 9 10 12 10 9 6 5 4 4 4 4 3 3 2 1 1 0 1 2 4 5 6 6 6 6 6 5 5 5 6 6 6 5 5 3 3 3 3 2 2 3
11 10 9 9 9 10 10 9 10 10 10 9 8 5 4 5 5 4 4 3 3 2 1 1 0 2 3 4 5 6 6 6 6 6 5 5 5 6 6 6 6 5 4 4 4 3 3 3 3
10 9 9 9 9 11 10 11 11 11 9 9 7 4 5 5 4 4 3 3 2 2 2 1 1 2 2 4 5 6 7 7 7 6 5 5 5 5 6 6 6 5 4 3 4 3 3 3 4
9 10 10 9 9 10 11 11 11 11 9 10 9 7 5 5 4 4 3 3 3 2 2 1 1 1 2 3 5 6 7 7 7 7 6 5 4 5 5 6 6 5 3 3 3 3 3 3 5
10 12 11 10 10 10 11 13 12 9 9 10 10 9 8 5 4 4 3 3 2 2 2 1 1 1 2 3 5 5 6 6 7 6 5 5 4 5 5 6 6 5 3 3 3 3 3 4 4
12 12 15 11 10 9 11 15 11 9 9 11 11 10 9 9 5 3 3 3 2 2 2 1 1 1 2 3 4 5 5 6 6 6 6 5 4 4 5 5 5 5 3 3 3 3 4 4 3
12 17 15 13 10 10 11 14 11 9 9 10 10 10 9 9 9 5 3 2 2 2 2 2 1 1 2 3 4 5 6 6 6 6 6 5 4 4 5 5 5 4 3 3 3 3 3 5 4
15 15 14 15 12 11 11 13 11 10 10 11 11 11 10 10 9 8 4 2 2 2 2 1 1 1 2 3 5 5 6 6 6 6 6 5 5 5 5 5 5 4 3 3 3 3 3 5 4
12 13 14 13 11 12 13 12 11 10 11 11 12 12 11 10 9 8 6 2 2 2 2 2 2 1 2 4 5 6 7 7 7 6 5 5 5 5 5 5 5 4 4 3 3 3 3 4 4
11 13 14 12 11 11 12 14 12 10 11 11 10 11 11 11 10 10 9 5 3 3 2 2 2 1 2 3 5 6 6 7 6 6 5 5 5 5 5 5 5 4 4 3 3 3 4 4 4
12 13 13 12 11 10 14 16 14 11 10 11 10 9 10 10 10 11 11 9 4 3 2 2 2 1 1 3 4 5 6 6 7 7 6 6 5 5 5 5 5 4 3 3 3 3 4 4 5
16 11 11 11 12 16 12 19 14 13 11 11 11 10 10 10 10 9 10 10 9 4 2 2 2 1 1 3 5 6 7 7 7 7 7 6 5 5 5 5 5 4 4 3 3 3 3 4 5
14 11 12 12 12 13 14 15 16 13 13 12 10 11 9 9 9 10 10 9 9 7 3 2 2 2 1 3 5 6 7 7 6 6 7 7 6 5 5 5 5 4 4 3 3 3 3 3 4
11 12 12 12 13 18 15 15 17 15 14 12 10 10 10 9 9 9 9 8 8 8 4 2 2 2 1 2 5 6 6 7 7 7 7 7 6 7 6 5 5 4 4 3 3 3 3 3 3
10 14 19 20 20 20 14 16 16 13 11 11 9 9 10 9 9 9 9 10 9 9 6 3 2 3 2 2 5 5 5 6 7 7 7 7 7 6 6 5 5 4 3 3 2 3 3 3 3
12 13 18 22 21 19 14 18 17 11 10 10 10 10 9 10 9 8 9 10 9 7 5 3 3 3 2 2 4 4 5 6 6 7 6 6 6 5 5 5 4 4 3 3 3 3 3 3 3
13 15 11 16 16 18 16 14 12 11 11 11 11 10 10 10 10 9 9 9 9 8 5 3 3 3 2 2 4 4 4 6 6 6 6 7 6 5 5 4 4 4 3 3 3 4 4 3 4
11 10 17 16 22 22 17 16 16 13 12 11 11 11 10 9 10 10 10 9 9 8 5 3 2 3 2 2 3 4 4 5 6 6 7 8 6 5 5 4 4 4 4 3 3 4 3 3 4
13 14 13 14 15 20 21 17 12 12 11 11 11 11 11 10 10 11 11 10 10 9 5 3 3 3 3 3 3 4 4 5 6 6 7 6 5 5 4 4 4 4 4 3 3 4 3 4 4
11 13 13 17 18 15 16 16 10 11 10 10 10 11 12 11 11 11 12 11 10 8 5 4 3 3 3 3 3 4 5 5 6 6 6 6 5 4 4 4 4 4 4 3 4 4 4 4 4